Location: Augsburg
(48.3836°N, 10.8929°E)
Time: 17:00:35
(UTC+02:00)

ISS - Pass Details

Date: 18 May 2021
Orbit: 417 x 422 km, 51.6° (Epoch: 12 June)

Event Time Altitude Azimuth Distance (km) Brightness Sun altitude
Rises 01:16:56 0° 288° (WNW) 2,370 0.3 -22.1°
Reaches altitude 10° 01:19:04 10° 292° (WNW) 1,506 -0.7 -22.1°
Maximum altitude 01:22:24 56° 12° (NNE) 506 -3.1 -22.0°
Enters shadow 01:22:47 52° 44° (NE) 532 -3.1 -22.0°
